2021-062B (49009 NORAD) Tracking and Keplerian Element Data

This shows tracking and keplerian element data for the satellite.

Feedback or suggestion? Click here.




ElementValue
Catalog49009
Name2021-062B
Epoch Orbit415
Epoch Day215.09543824
Epoch Year2021
RAAN217.4229
Inclination98.6803
Eccentricity0.0090409
Argument of Perigee102.2836
Mean Anonmoly258.8461
Mean Motion14.29556191
Decay Rate0.00081523
L11 49009U 21062B 21215.09543824 .00081523 00000-0 30157-1 0 9995
L22 49009 98.6803 217.4229 0090409 102.2836 258.8461 14.29556191 4156



Live tracking and technical data element details for 2021-062B (NORAD 49009). 2021-062B can be tracked NOW for your location showing map with azimuth and elevation plus other details from your city location.







IsCatalogInMostPopularTable: catalog: 49009, numindb: 60
Update: records affected: 1



GetName: 49009 2021-062B

Hit Count: updated at: Sun, 28 May 2023 19:17:29 GMT